Total_Precipitation_Accumulation
2.68 2.60 2.49 2.45 2.26 1.84 1.52 1.61 1.81 1.81 1.92 1.93 1.94 1.90 2.12 2.53 3.42 5.01 4.46 3.28 4.36 4.31 2.11 1.04 0.85 0.93 0.88 1.18 1.67 1.38 1.67 1.55 1.85 2.01 1.52 1.09 0.68 0.44 0.42 0.30 0.38 0.58 1.16 1.25 1.48 2.20 1.21 0.36 0.54 0.98 1.06 0.79 0.56 0.45
2.84 2.48 2.15 2.14 2.09 1.90 1.54 1.48 1.53 1.67 1.78 1.77 1.78 1.91 2.04 2.63 3.67 5.07 4.83 3.19 3.82 4.73 3.17 1.37 0.82 0.74 0.64 0.75 1.38 1.76 1.50 1.22 1.30 1.58 1.48 1.21 0.99 0.71 0.53 0.84 0.46 0.87 0.78 1.00 1.06 0.89 0.70 0.63 0.91 0.78 0.74 0.81 0.46 0.31
3.09 2.37 1.88 1.87 1.81 1.55 1.44 1.36 1.38 1.57 1.70 1.71 1.99 2.21 2.55 2.68 3.55 5.54 4.66 3.03 5.93 6.39 3.46 1.59 1.07 0.65 0.55 0.55 0.87 1.67 1.06 1.10 1.45 1.49 1.74 1.69 1.30 0.67 0.66 0.57 0.69 0.96 0.88 1.19 1.38 1.12 1.09 1.15 0.67 0.42 0.55 0.56 0.40 0.29
3.18 2.54 1.95 1.95 1.85 1.46 1.50 1.52 1.39 1.54 1.76 1.86 2.13 2.67 2.82 3.23 3.68 5.42 4.96 3.45 5.36 5.03 3.77 1.91 0.98 0.92 0.70 0.55 0.52 0.58 0.61 0.78 1.18 1.71 2.06 1.93 1.22 0.65 0.73 0.80 0.91 0.95 1.38 1.72 2.27 1.59 1.27 1.07 0.97 0.78 0.48 0.22 0.24 0.39
3.16 2.56 2.12 2.04 1.95 1.65 1.56 1.56 1.50 1.67 1.90 2.14 2.29 2.58 3.11 3.51 4.41 5.50 4.51 3.43 3.44 3.94 3.83 2.00 0.85 0.77 0.77 0.73 0.66 0.78 0.89 1.08 1.44 2.01 2.23 1.33 0.76 0.73 0.64 0.84 0.62 0.29 0.82 1.76 2.20 1.42 1.42 1.11 0.54 0.41 0.39 0.36 0.24 0.12
2.97 2.55 2.43 2.21 2.03 1.79 1.65 1.70 1.79 1.84 1.93 2.28 2.39 2.81 3.18 3.92 5.65 7.27 9.57 5.73 2.95 3.42 4.18 2.69 1.49 0.84 0.87 0.98 1.01 1.05 1.15 1.53 1.82 1.85 1.53 1.03 0.61 1.33 1.51 1.03 0.42 0.22 0.29 0.52 1.00 1.17 1.11 0.87 0.51 0.32 0.28 0.14 0.05 0.08
2.84 2.59 2.65 2.45 2.34 2.17 2.05 2.02 2.01 1.93 2.21 2.67 2.90 3.32 3.87 5.08 5.21 5.13 5.00 3.01 2.06 3.15 4.80 3.05 1.87 0.85 0.78 1.24 1.50 1.47 1.56 1.80 1.72 1.78 1.23 0.68 0.65 1.63 1.99 1.01 0.50 0.33 0.37 0.52 0.58 0.84 0.65 0.33 0.26 0.12 0.04 0.02 0.03 0.03
2.55 2.30 2.02 1.88 1.91 2.10 2.27 2.26 2.16 2.13 2.83 3.25 3.86 4.46 5.36 6.00 5.86 4.18 1.78 1.38 1.94 3.52 3.34 2.61 2.01 1.55 1.15 1.43 1.99 1.82 2.03 1.92 2.01 1.68 1.06 0.69 0.89 1.29 1.27 0.30 0.09 0.15 0.26 0.35 0.39 0.35 0.33 0.20 0.07 0.03 0.02 0.04 0.07 0.10
2.36 2.01 1.76 1.57 1.62 1.92 2.07 2.09 2.32 3.03 3.36 3.78 4.78 6.46 8.06 7.59 6.76 3.56 2.29 2.42 2.62 3.60 2.97 1.33 1.32 2.03 1.61 1.56 1.80 2.18 2.25 2.38 1.61 1.15 0.64 1.08 1.29 1.31 0.54 0.10 0.07 0.14 0.19 0.13 0.05 0.09 0.12 0.10 0.08 0.06 0.06 0.10 0.18 0.33
1.97 1.62 1.38 1.42 1.60 1.85 1.88 2.22 2.89 3.55 3.99 4.97 6.86 9.64 10.90 6.38 3.09 3.31 5.57 6.22 5.75 3.76 1.67 0.83 0.73 1.75 2.10 2.23 2.01 2.46 2.37 2.07 1.85 0.83 0.83 1.04 0.92 0.66 0.29 0.27 0.31 0.23 0.14 0.07 0.08 0.12 0.15 0.13 0.16 0.19 0.28 0.35 0.41 0.39
1.77 1.41 1.22 1.34 1.48 1.63 1.67 2.12 2.77 3.80 5.51 7.24 8.67 8.05 6.16 4.10 3.67 5.00 6.24 5.56 4.58 2.72 0.98 0.53 0.58 1.41 1.88 2.13 1.91 1.82 2.15 1.85 1.67 1.69 1.44 1.40 1.26 1.33 0.45 0.26 0.12 0.07 0.07 0.09 0.13 0.22 0.24 0.27 0.44 0.52 0.43 0.32 0.26 0.21
1.75 1.22 1.15 1.25 1.41 1.65 1.70 2.03 2.81 4.11 5.44 5.04 4.75 5.51 6.12 5.01 4.88 5.12 3.86 2.57 1.54 0.98 0.44 0.35 0.48 0.98 1.90 2.10 2.31 2.01 2.01 2.00 1.44 1.52 1.90 1.38 1.05 0.44 0.20 0.20 0.26 0.23 0.18 0.13 0.16 0.30 0.38 0.43 0.42 0.35 0.29 0.30 0.33 0.35
1.76 1.34 1.31 1.35 1.65 1.82 1.92 2.49 2.68 3.10 3.23 3.62 3.99 4.97 4.87 4.47 4.00 2.85 1.85 1.23 0.85 0.85 0.52 0.68 0.80 1.10 1.61 2.09 2.46 1.61 1.83 1.91 1.42 1.75 1.28 1.05 0.96 0.66 0.73 1.03 0.96 0.62 0.35 0.32 0.26 0.25 0.26 0.23 0.21 0.28 0.31 0.35 0.33 0.39
1.55 1.19 1.27 1.43 1.74 2.19 2.54 2.93 2.98 3.21 3.11 3.69 3.90 3.64 3.13 2.66 1.85 1.38 0.91 0.81 0.83 0.63 0.49 0.85 0.63 0.78 0.99 1.47 1.91 1.69 1.68 1.48 1.74 1.05 1.28 1.48 1.09 0.90 0.60 0.50 0.43 0.47 0.49 0.51 0.55 0.52 0.49 0.47 0.53 0.59 0.66 0.77 0.72 0.90
1.38 1.25 1.42 1.74 2.09 2.27 2.58 2.73 2.27 2.15 2.37 2.30 2.03 1.91 1.50 1.49 1.17 1.00 0.79 0.69 0.61 0.60 0.78 1.19 1.34 1.34 1.43 1.55 1.31 1.10 1.11 0.96 0.83 1.25 1.54 1.09 0.92 0.76 0.63 0.58 0.61 0.68 0.70 0.68 0.69 0.66 0.74 0.75 0.69 0.89 1.08 0.99 0.80 0.81
1.79 1.99 1.93 1.98 2.06 1.97 2.07 2.02 2.01 1.85 1.37 1.02 1.00 1.18 1.09 0.97 0.97 0.86 0.87 0.90 0.88 1.05 1.29 1.70 1.89 1.54 1.49 0.95 0.75 0.65 0.63 0.84 1.26 1.15 0.80 0.68 0.65 0.65 0.69 0.74 0.86 0.84 0.73 0.68 0.67 0.62 0.62 0.63 0.57 0.64 0.79 0.79 0.69 0.59
2.01 2.76 2.24 1.85 1.76 1.75 1.71 1.45 1.72 1.48 1.19 0.74 0.98 1.03 0.98 0.90 0.95 0.97 0.87 0.85 0.88 1.00 1.34 1.44 1.19 0.96 0.91 0.83 0.80 0.98 1.45 1.62 1.12 0.92 0.87 0.73 0.76 0.82 0.82 0.83 0.86 0.82 0.74 0.67 0.62 0.59 0.61 0.61 0.45 0.31 0.42 0.60 0.47 0.47
1.85 1.53 1.39 1.50 1.62 1.54 1.36 1.02 0.99 0.76 0.86 0.96 0.94 1.18 0.86 0.96 0.95 0.86 0.82 0.66 0.74 0.83 0.84 1.06 0.82 0.63 0.67 0.71 0.91 1.11 1.02 0.94 0.90 0.90 0.92 0.89 0.83 0.88 0.85 0.85 0.88 0.78 0.68 0.62 0.54 0.53 0.55 0.50 0.40 0.47 0.43 0.40 0.28 0.27
1.64 1.45 1.39 1.30 0.85 0.89 1.16 0.92 0.43 0.57 0.96 0.87 0.85 0.72 0.58 0.69 0.66 0.64 0.51 0.47 0.60 0.69 1.03 0.73 0.64 0.68 0.80 1.02 1.14 1.11 1.06 0.93 0.92 0.92 0.87 0.84 0.84 0.83 0.85 0.80 0.73 0.66 0.51 0.51 0.45 0.45 0.47 0.42 0.41 0.36 0.31 0.22 0.21 0.20
1.62 1.43 1.12 0.67 0.32 0.33 0.38 0.49 0.26 0.37 0.64 0.68 0.51 0.37 0.34 0.45 0.35 0.30 0.41 0.43 0.45 0.83 1.16 0.84 0.93 1.07 1.12 1.18 1.04 0.99 0.98 0.85 0.59 0.62 0.79 0.92 0.94 0.72 0.75 0.68 0.64 0.57 0.44 0.42 0.39 0.36 0.27 0.21 0.21 0.21 0.23 0.23 0.21 0.21
1.58 1.59 1.18 0.64 0.35 0.23 0.24 0.14 0.19 0.20 0.35 0.48 0.37 0.19 0.39 0.36 0.40 0.40 0.51 0.37 0.71 0.95 1.05 1.04 1.03 1.15 1.02 1.04 0.91 0.73 0.73 0.52 0.48 0.44 0.52 0.63 0.72 0.54 0.56 0.58 0.54 0.50 0.44 0.42 0.31 0.30 0.23 0.25 0.26 0.23 0.22 0.19 0.18 0.18
1.06 1.11 0.99 0.62 0.39 0.16 0.19 0.06 0.08 0.07 0.11 0.25 0.22 0.19 0.38 0.48 0.47 0.42 0.33 0.35 0.78 0.93 0.96 0.94 0.97 0.80 0.66 0.77 0.80 0.73 0.77 0.58 0.47 0.41 0.40 0.37 0.43 0.44 0.49 0.56 0.46 0.48 0.45 0.44 0.35 0.30 0.24 0.18 0.15 0.16 0.16 0.15 0.15 0.16
0.44 0.52 0.55 0.53 0.41 0.20 0.32 0.16 0.14 0.10 0.15 0.20 0.19 0.17 0.22 0.23 0.31 0.22 0.29 0.45 0.83 0.94 0.81 0.72 0.70 0.57 0.52 0.60 0.40 0.33 0.32 0.30 0.37 0.44 0.43 0.37 0.36 0.38 0.36 0.42 0.45 0.47 0.45 0.46 0.39 0.36 0.31 0.26 0.20 0.17 0.15 0.15 0.19 0.24
0.35 0.53 0.57 0.45 0.29 0.23 0.18 0.29 0.19 0.11 0.14 0.15 0.16 0.16 0.15 0.16 0.18 0.15 0.27 0.51 0.78 0.57 0.42 0.39 0.34 0.32 0.26 0.19 0.22 0.25 0.22 0.14 0.16 0.20 0.25 0.19 0.20 0.26 0.22 0.22 0.24 0.28 0.31 0.32 0.32 0.35 0.34 0.35 0.32 0.33 0.30 0.30 0.34 0.35
0.55 0.44 0.42 0.32 0.17 0.11 0.09 0.16 0.22 0.12 0.13 0.10 0.12 0.14 0.13 0.10 0.16 0.16 0.28 0.67 0.52 0.50 0.41 0.33 0.24 0.21 0.23 0.26 0.23 0.19 0.15 0.12 0.11 0.11 0.16 0.16 0.17 0.16 0.13 0.11 0.12 0.14 0.16 0.24 0.26 0.29 0.32 0.31 0.36 0.40 0.40 0.44 0.47 0.49
0.48 0.31 0.20 0.14 0.07 0.09 0.07 0.09 0.10 0.11 0.11 0.14 0.16 0.17 0.14 0.16 0.17 0.27 0.48 0.67 0.53 0.44 0.42 0.39 0.33 0.26 0.24 0.18 0.19 0.18 0.15 0.14 0.13 0.10 0.13 0.09 0.11 0.18 0.22 0.15 0.12 0.14 0.16 0.24 0.34 0.35 0.27 0.27 0.34 0.35 0.44 0.43 0.44 0.51
0.27 0.21 0.09 0.07 0.10 0.16 0.16 0.15 0.16 0.19 0.20 0.23 0.26 0.19 0.25 0.25 0.35 0.64 0.68 0.54 0.48 0.43 0.31 0.27 0.23 0.22 0.22 0.18 0.16 0.18 0.16 0.12 0.13 0.13 0.08 0.06 0.08 0.17 0.37 0.45 0.44 0.33 0.16 0.18 0.25 0.34 0.43 0.42 0.41 0.39 0.45 0.49 0.51 0.58
0.14 0.12 0.14 0.23 0.29 0.27 0.31 0.30 0.32 0.36 0.47 0.49 0.29 0.26 0.31 0.37 0.65 0.82 0.64 0.53 0.46 0.26 0.18 0.15 0.12 0.12 0.10 0.12 0.19 0.26 0.28 0.24 0.20 0.20 0.20 0.22 0.26 0.38 0.39 0.37 0.29 0.22 0.20 0.23 0.29 0.36 0.47 0.55 0.54 0.50 0.49 0.52 0.57 0.60
0.22 0.25 0.24 0.27 0.28 0.27 0.34 0.38 0.44 0.43 0.38 0.34 0.41 0.43 0.43 0.52 0.74 0.64 0.50 0.38 0.29 0.18 0.18 0.18 0.26 0.17 0.16 0.16 0.21 0.26 0.29 0.32 0.36 0.32 0.25 0.28 0.41 0.49 0.37 0.31 0.30 0.27 0.29 0.31 0.31 0.36 0.46 0.56 0.54 0.57 0.62 0.58 0.53 0.56
0.19 0.18 0.20 0.18 0.24 0.31 0.49 0.42 0.37 0.26 0.13 0.15 0.20 0.29 0.42 0.92 1.11 0.62 0.37 0.30 0.30 0.30 0.28 0.24 0.25 0.20 0.23 0.19 0.21 0.25 0.29 0.27 0.36 0.49 0.52 0.42 0.41 0.36 0.30 0.31 0.32 0.32 0.34 0.34 0.35 0.33 0.31 0.34 0.40 0.50 0.44 0.41 0.48 0.55
0.22 0.26 0.26 0.23 0.38 0.48 0.53 0.31 0.21 0.17 0.19 0.18 0.18 0.26 0.64 0.87 0.95 0.71 0.48 0.51 0.37 0.26 0.24 0.25 0.22 0.24 0.29 0.30 0.28 0.24 0.27 0.21 0.21 0.22 0.29 0.34 0.33 0.30 0.30 0.25 0.25 0.31 0.33 0.33 0.31 0.31 0.32 0.34 0.39 0.43 0.38 0.43 0.48 0.54
0.32 0.36 0.32 0.35 0.52 0.45 0.38 0.36 0.27 0.31 0.31 0.27 0.42 0.48 0.65 0.65 0.64 0.61 0.67 0.57 0.47 0.32 0.32 0.34 0.33 0.37 0.37 0.37 0.33 0.33 0.31 0.25 0.23 0.27 0.27 0.28 0.29 0.28 0.22 0.20 0.23 0.27 0.29 0.28 0.30 0.34 0.34 0.35 0.39 0.42 0.47 0.52 0.54 0.50
0.24 0.23 0.26 0.28 0.31 0.33 0.34 0.31 0.22 0.26 0.27 0.38 0.66 0.54 0.58 0.57 0.55 0.62 0.55 0.61 0.68 0.49 0.40 0.41 0.46 0.45 0.38 0.32 0.33 0.36 0.34 0.35 0.32 0.30 0.27 0.24 0.24 0.25 0.27 0.27 0.24 0.24 0.26 0.28 0.31 0.32 0.29 0.30 0.33 0.40 0.42 0.42 0.38 0.37